Girona, Spain

2:11 AM CEST on April 21, 2018 (GMT +0200)
Girona

Weather History for LEGE - January, 2013

Change the Weather History Date:

Tuesday, January 1, 2013

  Actual Average Record
Temperature  
Mean Temperature 45 °F -  
Max Temperature 53 °F 55 °F 64 °F (2005)
Min Temperature 37 °F 35 °F 23 °F (2008)
Degree Days  
Heating Degree Days 20    
Moisture  
Dew Point 39 °F    
Average Humidity 81    
Maximum Humidity 100    
Minimum Humidity 49    
Precipitation  
Precipitation 0.04 in 0.08 in - ()
Sea Level Pressure  
Sea Level Pressure 30.01 in    
Wind  
Wind Speed 5 mph ()    
Max Wind Speed 16 mph    
Max Gust Speed -    
Visibility 4.8 miles    
Events Fog , Rain    
Averages and records for this station are not official NWS values.
T = Trace of Precipitation, MM = Missing Value Source: Averaged Metar Reports

Daily Weather History Graph

Daily Weather History Graph

Search for Another Location

Airport or City:

Astronomy

Jan. 01, 2013 Rise Set
Actual Time 8:16 AM CET 5:28 PM CET
Civil Twilight 7:45 AM CET 6:00 PM CET
Nautical Twilight 7:10 AM CET 6:35 PM CET
Astronomical Twilight 6:36 AM CET 7:09 PM CET
Moon 9:48 PM CET (1/1) 10:17 AM CET (1/1)
Length of Visible Light 10h 14m
Length of Day
9h 11m
Waning Gibbous, 85% of the Moon is Illuminated
Jan 1
Waning Gibbous
Jan 5
Last Quarter
Jan 11
New
Jan 19
First Quarter
Jan 27
Full

Hourly Weather History & Observations

Time (CET) Temp. Windchill Dew Point Humidity Pressure Visibility Wind Dir Wind Speed Gust Speed Precip Events Conditions
12:00 AM 46.4 °F 39.8 °F 35.6 °F 66% 29.98 in - SSW 16.1 mph - N/A   Clear
12:30 AM 46.4 °F 40.1 °F 33.8 °F 62% 29.98 in - SSW 15.0 mph - N/A   Clear
1:00 AM 48 °F - 35 °F 49% 29.96 in - SSW 15.0 mph - -  
1:00 AM 46.4 °F 40.1 °F 33.8 °F 62% 29.95 in - SSW 15.0 mph - N/A   Clear
1:30 AM 46.4 °F 42.4 °F 33.8 °F 62% 29.95 in - SW 8.1 mph - N/A   Clear
2:00 AM 46.4 °F 40.4 °F 33.8 °F 62% 29.95 in - SSW 13.8 mph - N/A   Clear
2:30 AM 46.4 °F 39.8 °F 33.8 °F 62% 29.95 in - SSW 16.1 mph - N/A   Clear
3:00 AM 46.4 °F 40.7 °F 33.8 °F 62% 29.95 in - SSW 12.7 mph - N/A   Clear
4:00 AM 46.4 °F 42.9 °F 33.8 °F 62% 29.92 in - SW 6.9 mph - N/A   Clear
4:30 AM 44.6 °F - 33.8 °F 66% 29.95 in - Calm Calm - N/A   Clear
5:30 AM 41.0 °F - 33.8 °F 76% 29.95 in - Variable 1.2 mph - N/A   Clear
6:00 AM 42.8 °F - 33.8 °F 70% 29.95 in - North 1.2 mph - N/A   Clear
6:30 AM 44.6 °F - 33.8 °F 66% 29.95 in - Calm Calm - N/A   Clear
7:00 AM 42 °F - 35 °F 68% 29.97 in 14 mi NNE 6.9 mph - -   Scattered Clouds
7:00 AM 39.2 °F 35.0 °F 33.8 °F 81% 29.98 in - NNE 5.8 mph - N/A   Clear
7:30 AM 39.2 °F - 33.8 °F 81% 29.98 in 6.2 mi North 2.3 mph - N/A   Scattered Clouds
8:00 AM 41.0 °F - 33.8 °F 76% 29.98 in 6.2 mi Variable 1.2 mph - N/A   Mostly Cloudy
8:30 AM 41.0 °F - 35.6 °F 81% 29.98 in 6.2 mi Calm Calm - N/A   Mostly Cloudy
9:00 AM 42.8 °F - 35.6 °F 76% 29.98 in 6.2 mi Variable 2.3 mph - N/A   Mostly Cloudy
9:30 AM 44.6 °F - 35.6 °F 71% 29.98 in 6.2 mi Variable 2.3 mph - N/A   Mostly Cloudy
10:00 AM 42.8 °F - 35.6 °F 76% 30.01 in 6.2 mi ENE 2.3 mph - N/A   Mostly Cloudy
11:00 AM 46.4 °F - 37.4 °F 71% 30.01 in 6.2 mi NNE 1.2 mph - N/A   Mostly Cloudy
11:30 AM 48.2 °F - 39.2 °F 71% 30.01 in 6.2 mi Calm Calm - N/A   Mostly Cloudy
12:00 PM 50.0 °F - 39.2 °F 66% 30.01 in 6.2 mi Calm Calm - N/A   Mostly Cloudy
12:30 PM 50.0 °F - 39.2 °F 66% 30.01 in 6.2 mi Calm Calm - N/A   Mostly Cloudy
1:00 PM 53 °F - 40 °F 51% 30.00 in 9 mi Calm Calm - -   Overcast
1:00 PM 51.8 °F - 39.2 °F 62% 30.01 in 6.2 mi Calm Calm - N/A   Mostly Cloudy
1:30 PM 51.8 °F - 41.0 °F 67% 30.01 in 6.2 mi Calm Calm - N/A   Light Drizzle
2:00 PM 50.0 °F - 42.8 °F 76% 30.01 in 6.2 mi Calm Calm - N/A   Light Drizzle
3:00 PM 48.2 °F - 44.6 °F 87% 30.01 in 6.2 mi Calm Calm - N/A   Light Drizzle
3:30 PM 48.2 °F - 46.4 °F 93% 30.01 in 6.2 mi Calm Calm - N/A   Light Drizzle
4:00 PM 48.2 °F - 46.4 °F 93% 30.01 in 6.2 mi Variable 1.2 mph - N/A Rain Light Rain
4:30 PM 48.2 °F - 46.4 °F 93% 30.04 in 6.2 mi Calm Calm - N/A Rain Light Rain
5:00 PM 48.2 °F - 46.4 °F 93% 30.01 in 6.2 mi Calm Calm - N/A Fog Mostly Cloudy
5:30 PM 48.2 °F - 48.2 °F 100% 30.04 in 6.2 mi South 1.2 mph - N/A Fog Mostly Cloudy
6:00 PM 46.4 °F - 46.4 °F 100% 30.04 in 6.2 mi Variable 1.2 mph - N/A Fog Mostly Cloudy
6:30 PM 44.6 °F - 44.6 °F 100% 30.04 in 6.2 mi Calm Calm - N/A Fog Scattered Clouds
7:00 PM 46 °F - 43 °F 87% 30.05 in 1 mi Calm Calm - - Fog Patches of Fog
7:00 PM 44.6 °F - 44.6 °F 100% 30.04 in 0.6 mi Calm Calm - N/A Fog Patches of Fog
7:10 PM 44.6 °F - 44.6 °F 100% 30.04 in 0.6 mi Calm Calm - N/A Fog Patches of Fog
7:30 PM 41.0 °F - 41.0 °F 100% 30.04 in 0.4 mi Calm Calm - N/A Fog Patches of Fog
8:00 PM 41.0 °F - 41.0 °F 100% 30.06 in 0.1 mi Calm Calm - N/A Fog Fog
8:30 PM 41.0 °F - 41.0 °F 100% 30.06 in 0.1 mi Variable 1.2 mph - N/A Fog Fog
9:00 PM 39.2 °F - 39.2 °F 100% 30.06 in 0.3 mi Calm Calm - N/A   Unknown
9:30 PM 41.0 °F - 41.0 °F 100% 30.06 in 0.3 mi Calm Calm - N/A   Partly Cloudy
10:00 PM 39.2 °F - 39.2 °F 100% 30.06 in 0.3 mi Variable 1.2 mph - N/A Fog Fog
10:30 PM 39.2 °F - 39.2 °F 100% 30.09 in 0.5 mi Variable 1.2 mph - N/A Fog Patches of Fog
10:34 PM 37.4 °F - 37.4 °F 100% 30.09 in 6.2 mi West 2.3 mph - N/A Fog Patches of Fog
11:00 PM 37.4 °F - 37.4 °F 100% 30.09 in 6.2 mi Calm Calm - N/A Fog Patches of Fog
11:30 PM 37.4 °F 32.8 °F 37.4 °F 100% 30.09 in 6.2 mi NNE 5.8 mph - N/A Fog Patches of Fog
11:34 PM 37.4 °F 33.8 °F 37.4 °F 100% 30.09 in 0.6 mi NNE 4.6 mph - N/A Fog Fog